TimeCDT,TemperatureF,Dew PointF,Humidity,Sea Level PressureIn,VisibilityMPH,Wind Direction,Wind SpeedMPH,Gust SpeedMPH,PrecipitationIn,Events,Conditions,WindDirDegrees,DateUTC
1:15 AM,41.0,39.2,93,29.39,10.0,Calm,Calm,-,N/A,,Drizzle,0,2012-10-19 06:15:00
1:35 AM,41.0,39.2,93,29.39,7.0,East,3.5,-,N/A,Rain,Light Rain,90,2012-10-19 06:35:00
1:55 AM,41.0,39.2,93,29.39,10.0,East,3.5,-,N/A,,Light Drizzle,90,2012-10-19 06:55:00
2:15 AM,41.0,39.2,93,29.39,10.0,East,3.5,-,N/A,,Light Drizzle,90,2012-10-19 07:15:00
2:35 AM,41.0,39.2,93,29.40,10.0,Calm,Calm,-,N/A,,Overcast,0,2012-10-19 07:35:00
2:55 AM,41.0,39.2,93,29.40,7.0,Calm,Calm,-,N/A,,Light Drizzle,0,2012-10-19 07:55:00
3:15 AM,41.0,39.2,93,29.40,10.0,Calm,Calm,-,N/A,,Overcast,0,2012-10-19 08:15:00
3:35 AM,41.0,39.2,93,29.41,7.0,ENE,4.6,-,N/A,,Overcast,70,2012-10-19 08:35:00
3:55 AM,41.0,39.2,93,29.41,4.0,ENE,3.5,-,N/A,,Overcast,60,2012-10-19 08:55:00
4:15 AM,41.0,39.2,93,29.41,7.0,ENE,3.5,-,N/A,,Overcast,60,2012-10-19 09:15:00
4:35 AM,41.0,39.2,93,29.42,5.0,ENE,3.5,-,N/A,,Drizzle,60,2012-10-19 09:35:00
4:55 AM,41.0,39.2,93,29.42,4.0,NE,4.6,-,N/A,,Drizzle,50,2012-10-19 09:55:00
5:15 AM,41.0,41.0,100,29.43,4.0,NE,3.5,-,N/A,Rain,Light Rain,50,2012-10-19 10:15:00
5:35 AM,41.0,39.2,93,29.43,5.0,NE,3.5,-,0.01,Rain,Light Rain,50,2012-10-19 10:35:00
5:55 AM,41.0,39.2,93,29.43,5.0,NE,3.5,-,0.01,Rain,Rain,40,2012-10-19 10:55:00
6:15 AM,41.0,39.2,93,29.44,5.0,NE,3.5,-,0.01,,Drizzle,40,2012-10-19 11:15:00
6:35 AM,41.0,39.2,93,29.45,7.0,Calm,Calm,-,0.01,,Drizzle,0,2012-10-19 11:35:00
6:55 AM,41.0,39.2,93,29.45,10.0,Calm,Calm,-,0.01,,Drizzle,0,2012-10-19 11:55:00
7:15 AM,41.0,39.2,93,29.45,5.0,Calm,Calm,-,N/A,,Drizzle,0,2012-10-19 12:15:00
7:35 AM,41.0,41.0,100,29.46,5.0,NNE,3.5,-,N/A,,Light Drizzle,20,2012-10-19 12:35:00
7:55 AM,41.0,41.0,100,29.47,4.0,Calm,Calm,-,N/A,,Light Drizzle,0,2012-10-19 12:55:00
8:15 AM,41.0,41.0,100,29.48,3.0,NNE,4.6,-,N/A,,Drizzle,20,2012-10-19 13:15:00
8:35 AM,41.0,41.0,100,29.49,7.0,North,4.6,-,N/A,,Overcast,360,2012-10-19 13:35:00
8:55 AM,42.8,41.0,93,29.49,10.0,North,4.6,-,N/A,,Overcast,360,2012-10-19 13:55:00
9:15 AM,42.8,41.0,93,29.49,10.0,North,4.6,-,N/A,,Overcast,10,2012-10-19 14:15:00
9:35 AM,42.8,41.0,93,29.50,10.0,North,3.5,-,N/A,,Overcast,360,2012-10-19 14:35:00
9:55 AM,42.8,41.0,93,29.50,10.0,North,4.6,-,N/A,,Overcast,350,2012-10-19 14:55:00
10:15 AM,42.8,41.0,93,29.50,10.0,Calm,Calm,-,N/A,,Overcast,0,2012-10-19 15:15:00
10:35 AM,42.8,41.0,93,29.51,10.0,NE,6.9,-,N/A,,Overcast,40,2012-10-19 15:35:00
10:55 AM,44.6,41.0,87,29.52,10.0,NNE,3.5,-,N/A,,Overcast,20,2012-10-19 15:55:00
11:15 AM,44.6,41.0,87,29.52,10.0,NNE,5.8,-,N/A,,Overcast,20,2012-10-19 16:15:00
11:35 AM,44.6,39.2,81,29.52,10.0,NNE,8.1,-,N/A,,Overcast,20,2012-10-19 16:35:00
11:55 AM,44.6,41.0,87,29.53,10.0,North,4.6,-,N/A,,Overcast,360,2012-10-19 16:55:00
12:15 PM,44.6,41.0,87,29.53,7.0,NE,5.8,-,N/A,,Drizzle,40,2012-10-19 17:15:00
12:35 PM,46.4,41.0,81,29.52,7.0,NW,6.9,-,N/A,Rain,Rain,320,2012-10-19 17:35:00
12:55 PM,44.6,41.0,87,29.53,10.0,NNW,5.8,-,N/A,,Overcast,330,2012-10-19 17:55:00
1:15 PM,44.6,41.0,87,29.53,10.0,NW,3.5,-,N/A,,Overcast,320,2012-10-19 18:15:00
1:35 PM,42.8,41.0,93,29.54,4.0,NW,3.5,-,0.03,Rain,Rain,320,2012-10-19 18:35:00
1:55 PM,42.8,41.0,93,29.54,10.0,WNW,4.6,-,0.05,Rain,Light Rain,300,2012-10-19 18:55:00
2:15 PM,44.6,41.0,87,29.54,10.0,WNW,3.5,-,N/A,,Overcast,300,2012-10-19 19:15:00
2:35 PM,46.4,41.0,81,29.54,10.0,WNW,3.5,-,N/A,,Overcast,290,2012-10-19 19:35:00
2:55 PM,44.6,39.2,81,29.55,5.0,Calm,Calm,-,0.01,Rain,Light Rain,0,2012-10-19 19:55:00
3:15 PM,44.6,39.2,81,29.55,10.0,Calm,Calm,-,0.01,,Light Drizzle,0,2012-10-19 20:15:00
3:35 PM,46.4,41.0,81,29.56,10.0,North,3.5,-,0.01,,Mostly Cloudy,360,2012-10-19 20:35:00
3:55 PM,46.4,39.2,76,29.56,10.0,NNW,6.9,-,0.01,Rain,Light Rain,340,2012-10-19 20:55:00
4:15 PM,46.4,39.2,76,29.56,10.0,NNW,4.6,-,N/A,,Overcast,330,2012-10-19 21:15:00
4:35 PM,46.4,39.2,76,29.57,10.0,NW,4.6,-,N/A,,Mostly Cloudy,310,2012-10-19 21:35:00
4:55 PM,50.0,37.4,62,29.57,10.0,NNW,4.6,-,N/A,,Mostly Cloudy,340,2012-10-19 21:55:00
5:15 PM,46.4,37.4,71,29.58,10.0,North,5.8,-,N/A,,Overcast,350,2012-10-19 22:15:00
5:35 PM,46.4,37.4,71,29.59,10.0,NW,3.5,-,N/A,,Mostly Cloudy,310,2012-10-19 22:35:00
5:55 PM,44.6,37.4,76,29.60,10.0,WNW,3.5,-,N/A,,Mostly Cloudy,290,2012-10-19 22:55:00
6:15 PM,44.6,37.4,76,29.60,10.0,Calm,Calm,-,N/A,,Overcast,0,2012-10-19 23:15:00
6:35 PM,44.6,39.2,81,29.60,10.0,WNW,3.5,-,N/A,,Overcast,290,2012-10-19 23:35:00
7:35 PM,44.6,41.0,87,29.62,10.0,Calm,Calm,-,N/A,,Overcast,0,2012-10-20 00:35:00
7:55 PM,44.6,41.0,87,29.63,10.0,WNW,3.5,-,N/A,,Overcast,290,2012-10-20 00:55:00
8:15 PM,44.6,39.2,81,29.63,10.0,Calm,Calm,-,N/A,,Overcast,0,2012-10-20 01:15:00
8:35 PM,44.6,39.2,81,29.63,10.0,Calm,Calm,-,N/A,,Overcast,0,2012-10-20 01:35:00
8:55 PM,44.6,39.2,81,29.64,10.0,Calm,Calm,-,N/A,,Overcast,0,2012-10-20 01:55:00
9:15 PM,42.8,37.4,81,29.64,10.0,NW,3.5,-,N/A,,Mostly Cloudy,320,2012-10-20 02:15:00
9:35 PM,42.8,37.4,81,29.64,10.0,Calm,Calm,-,N/A,,Mostly Cloudy,0,2012-10-20 02:35:00
9:55 PM,42.8,37.4,81,29.65,10.0,NNW,4.6,-,N/A,,Mostly Cloudy,330,2012-10-20 02:55:00
10:15 PM,42.8,37.4,81,29.65,10.0,NW,3.5,-,N/A,,Mostly Cloudy,320,2012-10-20 03:15:00
10:35 PM,42.8,37.4,81,29.65,10.0,WNW,3.5,-,N/A,,Overcast,290,2012-10-20 03:35:00
10:55 PM,42.8,37.4,81,29.65,10.0,Calm,Calm,-,N/A,,Overcast,0,2012-10-20 03:55:00
11:15 PM,42.8,37.4,81,29.65,10.0,Calm,Calm,-,N/A,,Overcast,0,2012-10-20 04:15:00
11:35 PM,42.8,37.4,81,29.65,10.0,Calm,Calm,-,N/A,,Overcast,0,2012-10-20 04:35:00
11:55 PM,42.8,37.4,81,29.66,10.0,Calm,Calm,-,N/A,,Overcast,0,2012-10-20 04:55:00